This is the latest recevied weather packets stored in our database for station/object KD0SBN. If no packets are shown the sender has not sent any weather packets the latest 10 day(s).
| Time | Temp. | Humidity | Pressure | Rain* | Wind** | Luminosity | Snow |
|---|---|---|---|---|---|---|---|
| 1778183642 | 22.22° C | 23% | 1014.4 hPa | 0 mm | - | - | - |
| 1778183339 | 21.67° C | 25% | 1014.7 hPa | 0 mm | - | - | - |
| 1778183035 | 21.67° C | 25% | 1014.7 hPa | 0 mm | - | - | - |
| 1778182732 | 22.22° C | 28% | 1014.8 hPa | 0 mm | - | - | - |
| 1778182429 | 21.67° C | 25% | 1015 hPa | 0 mm | - | - | - |
| 1778182125 | 21.67° C | 22% | 1015.1 hPa | 0 mm | - | - | - |
| 1778181822 | 21.11° C | 26% | 1015 hPa | 0 mm | - | - | - |
| 1778181518 | 21.11° C | 25% | 1014.9 hPa | 0 mm | - | - | - |
| 1778181214 | 22.22° C | 27% | 1014.9 hPa | 0 mm | - | - | - |
| 1778180911 | 21.67° C | 25% | 1014.9 hPa | 0 mm | - | - | - |
| 1778180610 | 21.67° C | 27% | 1015 hPa | 0 mm | - | - | - |
| 1778180309 | 21.67° C | 26% | 1015.2 hPa | 0 mm | - | - | - |
| 1778180005 | 21.11° C | 26% | 1015.2 hPa | 0 mm | - | - | - |
| 1778179702 | 21.67° C | 26% | 1015.4 hPa | 0 mm | - | - | - |
| 1778179400 | 21.11° C | 25% | 1015.5 hPa | 0 mm | - | - | - |
| 1778179096 | 21.11° C | 27% | 1015.7 hPa | 0 mm | - | - | - |
| 1778178794 | 20.56° C | 27% | 1015.7 hPa | 0 mm | - | - | - |
| 1778178491 | 20° C | 29% | 1015.8 hPa | 0 mm | - | - | - |
| 1778178186 | 20° C | 28% | 1015.9 hPa | 0 mm | - | - | - |
| 1778177883 | 20° C | 30% | 1015.9 hPa | 0 mm | - | - | - |
| 1778177579 | 20° C | 29% | 1016.1 hPa | 0 mm | - | - | - |
| 1778177276 | 19.44° C | 29% | 1016.1 hPa | 0 mm | - | - | - |
| 1778176973 | 19.44° C | 29% | 1016.1 hPa | 0 mm | - | - | - |
| 1778176668 | 18.89° C | 32% | 1016.4 hPa | 0 mm | - | - | - |
| 1778176365 | 18.89° C | 33% | 1016.2 hPa | 0 mm | - | - | - |
* Rain latest hour (hover to see other rain measurements)
** Current wind speed in m/s (hover to see current wind gust speed)